User: anonymous   Login
Location: Unspecified
(41.1637°N, 0.0000°E)
Time: 01:17:27
(UTC+00:00)
Language:

NUDT-PHONESAT - Orbit

View from above orbital plane
View from above orbital plane
View from above satellite
View from above satellite

Ground track
Ground track

The orbit data is extracted from the following two-line orbital elements,

1 40900U 15049B   19235.49504846  .00001093  00000-0  49513-4 0  9991
2 40900  97.4369 244.1871 0011651 321.5360 197.6244 15.22947000217670
Epoch (UTC): 23 August 2019 11:52:52
Eccentricity: 0.0011651
inclination: 97.4369°
perigee height: 489 km
apogee height: 505 km
right ascension of ascending node: 244.1871°
argument of perigee: 321.5360°
revolutions per day: 15.22947000
mean anomaly at epoch: 197.6244°
orbit number at epoch: 21767

The dashed part of the orbit path shows where the satellite is in the earth's shadow,  

DLR